User: anonymous   Login
Location: Caltech
(34.1382°N, 118.1253°W)
Time: 23:13:29
(UTC-08:00)
Language:

ADEOS II - Orbit

View from above orbital plane
View from above orbital plane
View from above satellite
View from above satellite

Ground track
Ground track

The orbit data is extracted from the following two-line orbital elements,

1 27597U 02056A   17346.88281024 +.00000070 +00000-0 +45679-4 0  9999
2 27597 098.3950 309.0750 0001635 121.3921 238.7420 14.27324149780912
Epoch (UTC): 12 December 2017 21:11:14
Eccentricity: 0.0001635
inclination: 98.3950°
perigee height: 799 km
apogee height: 802 km
right ascension of ascending node: 309.0750°
argument of perigee: 121.3921°
revolutions per day: 14.27324149
mean anomaly at epoch: 238.7420°
orbit number at epoch: 78091

The dashed part of the orbit path shows where the satellite is in the earth's shadow,  

DLR